Location: Boiro
(42.6475°N, 8.8834°W)
Time: 07:23:28
(UTC+01:00)

SR - Pass Details

Date: 01 December 2021
Orbit: 583 x 872 km, 66.7° (Epoch: 16 January)

Event Time Altitude Azimuth Distance (km) Brightness Sun altitude
Rises 01:20:36 0° 199° (SSW) 3,033 - -69.1°
Reaches altitude 10° 01:23:01 10° 195° (SSW) 2,077 - -69.2°
Maximum altitude 01:27:34 57° 117° (ESE) 739 - -69.1°
Drops below altitude 10° 01:31:53 10° 39° (NE) 1,956 - -69.1°
Sets 01:34:06 0° 35° (NE) 2,841 - -69.1°
